| time (UTC) | temp F | wind direction | speed knots | gust knots | rain 1hr in | rain 24hr in | rain mn in | humidity % | barometer mb |
| 20260902115331 | 73 | 230 | 0.0 | 0.0 | 0.00 | 0.00 | 0.00 | 97 | 1017.3 |
| 20260902114827 | 73 | 230 | 0.0 | 0.9 | 0.00 | 0.00 | 0.00 | 98 | 1017.1 |
| 20260902114323 | 72 | 229 | 0.9 | 0.9 | 0.00 | 0.00 | 0.00 | 98 | 1016.9 |
| 20260902113822 | 72 | 206 | 0.0 | 0.0 | 0.00 | 0.00 | 0.00 | 98 | 1016.7 |
| 20260902113317 | 72 | 222 | 0.0 | 0.9 | 0.00 | 0.00 | 0.00 | 98 | 1016.6 |
| 20260902112812 | 72 | 222 | 0.9 | 2.6 | 0.00 | 0.00 | 0.00 | 98 | 1016.6 |
| 20260902112309 | 72 | 230 | 1.7 | 2.6 | 0.00 | 0.00 | 0.00 | 98 | 1016.7 |
| 20260902111803 | 72 | 227 | 0.9 | 0.9 | 0.00 | 0.00 | 0.00 | 98 | 1016.5 |
| 20260902111300 | 72 | 227 | 0.0 | 0.9 | 0.00 | 0.00 | 0.00 | 98 | 1016.5 |
| 20260902110755 | 72 | 227 | 0.0 | 0.0 | 0.00 | 0.00 | 0.00 | 98 | 1016.4 |
| 20260902110251 | 72 | 227 | 0.0 | 0.0 | 0.00 | 0.00 | 0.00 | 98 | 1016.7 |
| 20260902105751 | 72 | 227 | 0.0 | 0.0 | 0.00 | 0.00 | 0.00 | 98 | 1016.6 |
| 20260902105246 | 72 | 227 | 0.0 | 0.0 | 0.00 | 0.00 | 0.00 | 98 | 1016.6 |
| 20260902104742 | 72 | 227 | 0.0 | 0.9 | 0.00 | 0.00 | 0.00 | 98 | 1016.5 |
| 20260902104237 | 72 | 226 | 0.9 | 0.0 | 0.00 | 0.00 | 0.00 | 98 | 1016.3 |
| 20260902103736 | 72 | 225 | 0.0 | 0.9 | 0.00 | 0.00 | 0.00 | 98 | 1016.3 |
| 20260902103231 | 72 | 225 | 0.9 | 0.9 | 0.00 | 0.00 | 0.00 | 98 | 1016.4 |
| 20260902102727 | 72 | 221 | 0.0 | 0.9 | 0.00 | 0.00 | 0.00 | 98 | 1016.3 |
| 20260902102224 | 73 | 219 | 0.0 | 0.9 | 0.00 | 0.00 | 0.00 | 98 | 1016.4 |
| 20260902101719 | 72 | 219 | 0.9 | 0.9 | 0.00 | 0.00 | 0.00 | 98 | 1016.3 |
| 20260902101214 | 72 | 218 | 0.0 | 2.6 | 0.00 | 0.00 | 0.00 | 98 | 1016.4 |
| 20260902100713 | 72 | 221 | 0.9 | 0.9 | 0.00 | 0.00 | 0.00 | 98 | 1016.2 |
| 20260902100209 | 73 | 228 | 0.9 | 0.9 | 0.00 | 0.00 | 0.00 | 98 | 1016.4 |
| 20260902095708 | 72 | 240 | 0.9 | 3.5 | 0.00 | 0.00 | 0.00 | 98 | 1016.4 |
| 20260902095202 | 72 | 239 | 0.9 | 2.6 | 0.00 | 0.00 | 0.00 | 98 | 1016.4 |
| 20260902094657 | 72 | 198 | 0.9 | 3.5 | 0.00 | 0.00 | 0.00 | 99 | 1016.5 |
| 20260902094154 | 72 | 246 | 0.9 | 0.9 | 0.00 | 0.00 | 0.00 | 98 | 1016.5 |
| 20260902093653 | 72 | 225 | 0.0 | 0.9 | 0.00 | 0.00 | 0.00 | 98 | 1016.4 |
| 20260902093148 | 72 | 233 | 0.0 | 2.6 | 0.00 | 0.00 | 0.00 | 99 | 1016.6 |
| 20260902092643 | 72 | 245 | 0.0 | 2.6 | 0.00 | 0.00 | 0.00 | 98 | 1016.6 |
| 20260902092142 | 72 | 218 | 0.0 | 0.9 | 0.00 | 0.00 | 0.00 | 98 | 1016.6 |
| 20260902091637 | 72 | 237 | 0.9 | 0.9 | 0.00 | 0.00 | 0.00 | 99 | 1016.9 |
| 20260902091134 | 71 | 237 | 0.0 | 0.9 | 0.00 | 0.00 | 0.00 | 98 | 1017.0 |
| 20260902090629 | 71 | 237 | 0.9 | 0.9 | 0.00 | 0.00 | 0.00 | 99 | 1016.9 |
| 20260902090128 | 71 | 155 | 0.0 | 0.0 | 0.00 | 0.00 | 0.00 | 98 | 1016.7 |
| 20260902085624 | 71 | 155 | 0.0 | 0.0 | 0.00 | 0.00 | 0.00 | 98 | 1016.7 |
| 20260902085118 | 71 | 155 | 0.0 | 0.0 | 0.00 | 0.00 | 0.00 | 98 | 1016.6 |
| 20260902084615 | 71 | 155 | 0.0 | 0.0 | 0.00 | 0.00 | 0.00 | 98 | 1016.6 |
| 20260902084111 | 71 | 155 | 0.0 | 0.0 | 0.00 | 0.00 | 0.00 | 98 | 1016.7 |
| 20260902083605 | 71 | 155 | 0.0 | 0.0 | 0.00 | 0.00 | 0.00 | 98 | 1016.7 |
| 20260902083105 | 71 | 155 | 0.0 | 0.9 | 0.00 | 0.00 | 0.00 | 98 | 1016.6 |
| 20260902082601 | 71 | 155 | 0.0 | 0.0 | 0.00 | 0.00 | 0.00 | 98 | 1016.5 |
| 20260902082057 | 71 | 155 | 0.0 | 0.0 | 0.00 | 0.00 | 0.00 | 98 | 1016.6 |
| 20260902081554 | 71 | 155 | 0.0 | 0.0 | 0.00 | 0.00 | 0.00 | 98 | 1016.7 |
| 20260902081053 | 71 | 155 | 0.0 | 0.0 | 0.00 | 0.00 | 0.00 | 98 | 1016.6 |
| 20260902080548 | 71 | 155 | 0.0 | 0.0 | 0.00 | 0.00 | 0.00 | 98 | 1016.4 |
| 20260902080045 | 71 | 155 | 0.0 | 0.0 | 0.00 | 0.00 | 0.00 | 98 | 1016.5 |
| 20260902075544 | 71 | 155 | 0.0 | 0.0 | 0.00 | 0.00 | 0.00 | 98 | 1016.5 |
| 20260902075040 | 71 | 155 | 0.0 | 0.0 | 0.00 | 0.00 | 0.00 | 98 | 1016.6 |
| 20260902074536 | 71 | 155 | 0.0 | 0.0 | 0.00 | 0.00 | 0.00 | 98 | 1016.6 |
| 20260902074031 | 71 | 155 | 0.0 | 0.0 | 0.00 | 0.00 | 0.00 | 98 | 1016.6 |
| 20260902073526 | 71 | 155 | 0.0 | 0.0 | 0.00 | 0.00 | 0.00 | 98 | 1016.5 |
| 20260902073023 | 71 | 155 | 0.0 | 0.0 | 0.00 | 0.00 | 0.00 | 98 | 1016.7 |
| 20260902072518 | 72 | 155 | 0.0 | 0.0 | 0.00 | 0.00 | 0.00 | 98 | 1016.6 |
| 20260902072015 | 72 | 155 | 0.0 | 0.0 | 0.00 | 0.00 | 0.00 | 98 | 1016.5 |
| 20260902071514 | 71 | 155 | 0.0 | 0.0 | 0.00 | 0.00 | 0.00 | 97 | 1016.7 |
| 20260902071011 | 72 | 155 | 0.9 | 0.9 | 0.00 | 0.00 | 0.00 | 97 | 1016.6 |
| 20260902070506 | 72 | 155 | 0.0 | 0.0 | 0.00 | 0.00 | 0.00 | 97 | 1017.0 |
| 20260902070007 | 72 | 155 | 0.0 | 0.0 | 0.00 | 0.00 | 0.00 | 97 | 1016.9 |
| 20260902065500 | 72 | 157 | 0.0 | 0.0 | 0.00 | 0.00 | 0.00 | 97 | 1017.0 |
| 20260902064955 | 72 | 157 | 0.0 | 0.0 | 0.00 | 0.00 | 0.00 | 97 | 1016.9 |
| 20260902064450 | 71 | 241 | 0.0 | 0.0 | 0.00 | 0.00 | 0.00 | 97 | 1016.9 |
| 20260902063946 | 71 | 241 | 0.0 | 0.0 | 0.00 | 0.00 | 0.00 | 97 | 1017.0 |
| 20260902063445 | 72 | 241 | 0.0 | 0.9 | 0.00 | 0.00 | 0.00 | 97 | 1017.1 |
| 20260902062941 | 72 | 241 | 0.0 | 0.0 | 0.00 | 0.00 | 0.00 | 97 | 1016.9 |
| 20260902062440 | 72 | 241 | 0.0 | 0.0 | 0.00 | 0.00 | 0.00 | 97 | 1017.1 |
| 20260902061935 | 71 | 241 | 0.0 | 0.0 | 0.00 | 0.00 | 0.00 | 97 | 1017.0 |
| 20260902061430 | 72 | 241 | 0.0 | 0.0 | 0.00 | 0.00 | 0.00 | 97 | 1017.0 |
| 20260902060926 | 72 | 241 | 0.0 | 0.9 | 0.00 | 0.00 | 0.00 | 97 | 1017.1 |
| 20260902060422 | 72 | 241 | 0.0 | 0.0 | 0.00 | 0.00 | 0.00 | 97 | 1016.9 |
| 20260902055918 | 72 | 241 | 0.0 | 0.9 | 0.00 | 0.00 | 0.00 | 97 | 1017.0 |
| 20260902055414 | 72 | 241 | 0.0 | 0.0 | 0.00 | 0.00 | 0.00 | 97 | 1017.1 |
| 20260902054909 | 72 | 241 | 0.0 | 0.0 | 0.00 | 0.00 | 0.00 | 97 | 1016.9 |
| 20260902054404 | 72 | 241 | 0.0 | 0.0 | 0.00 | 0.00 | 0.00 | 97 | 1017.1 |
| 20260902053859 | 72 | 241 | 0.0 | 0.0 | 0.00 | 0.00 | 0.00 | 97 | 1017.0 |
| 20260902053354 | 72 | 241 | 0.0 | 0.9 | 0.00 | 0.00 | 0.00 | 96 | 1017.1 |
| 20260902052853 | 72 | 241 | 0.0 | 0.0 | 0.00 | 0.00 | 0.00 | 96 | 1016.9 |
| 20260902052349 | 72 | 241 | 0.0 | 0.0 | 0.00 | 0.00 | 0.00 | 96 | 1016.5 |
| 20260902051843 | 72 | 241 | 0.0 | 0.0 | 0.00 | 0.00 | 0.00 | 96 | 1016.7 |
| 20260902051337 | 72 | 241 | 0.0 | 0.0 | 0.00 | 0.00 | 0.00 | 96 | 1016.7 |
| 20260902050832 | 72 | 241 | 0.0 | 0.9 | 0.00 | 0.00 | 0.00 | 96 | 1016.6 |
| 20260902050331 | 72 | 241 | 0.0 | 0.0 | 0.00 | 0.00 | 0.00 | 96 | 1016.5 |
| 20260902045826 | 73 | 241 | 0.0 | 0.0 | 0.00 | 0.00 | 0.00 | 95 | 1016.5 |
| 20260902045322 | 73 | 241 | 0.0 | 0.0 | 0.00 | 0.00 | 0.00 | 95 | 1016.5 |
| 20260902044819 | 73 | 241 | 0.0 | 0.0 | 0.00 | 0.00 | 0.00 | 95 | 1016.3 |
| 20260902044314 | 73 | 241 | 0.0 | 0.0 | 0.00 | 0.00 | 0.00 | 95 | 1016.6 |
| 20260902043814 | 73 | 241 | 0.0 | 0.0 | 0.00 | 0.00 | 0.00 | 95 | 1016.4 |
| 20260902043309 | 73 | 241 | 0.0 | 0.0 | 0.00 | 0.00 | 0.00 | 94 | 1016.6 |
| 20260902042809 | 73 | 241 | 0.0 | 0.0 | 0.00 | 0.00 | 0.00 | 94 | 1016.4 |
| 20260902042308 | 73 | 241 | 0.0 | 0.9 | 0.00 | 0.00 | 0.00 | 94 | 1016.6 |
| 20260902041759 | 73 | 241 | 0.9 | 2.6 | 0.00 | 0.00 | 0.00 | 93 | 1016.5 |
| 20260902041259 | 74 | 242 | 0.9 | 0.9 | 0.00 | 0.00 | 0.00 | 93 | 1016.5 |
| 20260902040758 | 74 | 241 | 0.0 | 0.9 | 0.00 | 0.00 | 0.00 | 92 | 1016.6 |
| 20260902040254 | 75 | 241 | 0.0 | 0.0 | 0.00 | 0.00 | 0.00 | 92 | 1016.4 |
| 20260902035752 | 75 | 242 | 0.9 | 0.9 | 0.00 | 0.00 | 0.00 | 92 | 1016.5 |
| 20260902035248 | 74 | 228 | 0.9 | 2.6 | 0.00 | 0.00 | 0.00 | 93 | 1016.5 |
| 20260902034746 | 74 | 270 | 0.0 | 0.9 | 0.00 | 0.00 | 0.00 | 93 | 1016.5 |
| 20260902034242 | 74 | 271 | 0.9 | 0.9 | 0.00 | 0.00 | 0.00 | 92 | 1016.5 |
| 20260902033739 | 74 | 271 | 0.9 | 0.9 | 0.00 | 0.00 | 0.00 | 92 | 1016.3 |
| 20260902033235 | 75 | 271 | 0.0 | 0.0 | 0.00 | 0.00 | 0.00 | 92 | 1016.4 |
| 20260902032733 | 75 | 271 | 0.0 | 0.9 | 0.00 | 0.00 | 0.00 | 90 | 1016.2 |
| 20260902032229 | 75 | 271 | 0.9 | 0.9 | 0.00 | 0.00 | 0.00 | 89 | 1016.4 |
| 20260902031723 | 75 | 270 | 1.7 | 3.5 | 0.00 | 0.00 | 0.00 | 90 | 1016.4 |
| 20260902031218 | 75 | 264 | 0.9 | 2.6 | 0.00 | 0.00 | 0.00 | 90 | 1016.5 |
| 20260902030714 | 75 | 243 | 0.0 | 0.9 | 0.00 | 0.00 | 0.00 | 89 | 1016.4 |
| 20260902030214 | 76 | 251 | 0.0 | 0.9 | 0.00 | 0.00 | 0.00 | 89 | 1016.6 |
| 20260902025713 | 75 | 216 | 0.9 | 2.6 | 0.00 | 0.00 | 0.00 | 90 | 1016.3 |
| 20260902025208 | 75 | 258 | 2.6 | 2.6 | 0.00 | 0.00 | 0.00 | 91 | 1016.3 |
| 20260902024703 | 74 | 256 | 1.7 | 0.9 | 0.00 | 0.00 | 0.00 | 92 | 1016.3 |
| 20260902024158 | 74 | 256 | 0.9 | 0.9 | 0.00 | 0.00 | 0.00 | 93 | 1016.2 |
| 20260902023654 | 74 | 256 | 0.9 | 0.9 | 0.00 | 0.00 | 0.00 | 93 | 1016.2 |
| 20260902023149 | 74 | 255 | 0.9 | 0.9 | 0.00 | 0.00 | 0.00 | 93 | 1016.3 |
| 20260902022648 | 74 | 256 | 0.0 | 0.0 | 0.00 | 0.00 | 0.00 | 93 | 1016.2 |
| 20260902022144 | 74 | 256 | 0.0 | 0.0 | 0.00 | 0.00 | 0.00 | 92 | 1016.2 |
| 20260902021640 | 74 | 256 | 0.9 | 0.9 | 0.00 | 0.00 | 0.00 | 92 | 1016.3 |
| 20260902021134 | 74 | 256 | 0.0 | 0.0 | 0.00 | 0.00 | 0.00 | 91 | 1016.3 |
| 20260902020631 | 75 | 256 | 0.0 | 0.0 | 0.00 | 0.00 | 0.00 | 90 | 1016.1 |
| 20260902020126 | 75 | 256 | 0.0 | 0.0 | 0.00 | 0.00 | 0.00 | 89 | 1015.9 |
| 20260902015622 | 75 | 256 | 0.0 | 0.0 | 0.00 | 0.00 | 0.00 | 89 | 1016.2 |
| 20260902015118 | 75 | 256 | 0.0 | 0.0 | 0.00 | 0.00 | 0.00 | 89 | 1016.1 |
| 20260902014613 | 75 | 256 | 0.0 | 0.0 | 0.00 | 0.00 | 0.00 | 88 | 1016.1 |
| 20260902014109 | 75 | 256 | 0.0 | 0.0 | 0.00 | 0.00 | 0.00 | 87 | 1016.1 |
| 20260902013608 | 76 | 256 | 0.0 | 0.0 | 0.00 | 0.00 | 0.00 | 87 | 1016.1 |
| 20260902013104 | 76 | 256 | 0.0 | 0.0 | 0.00 | 0.00 | 0.00 | 86 | 1016.0 |
| 20260902012559 | 76 | 256 | 0.0 | 0.0 | 0.00 | 0.00 | 0.00 | 86 | 1016.1 |
| 20260902012054 | 76 | 256 | 0.0 | 0.0 | 0.00 | 0.00 | 0.00 | 86 | 1016.0 |
| 20260902011550 | 76 | 256 | 0.0 | 0.0 | 0.00 | 0.00 | 0.00 | 86 | 1015.9 |
| 20260902011049 | 77 | 256 | 0.0 | 0.0 | 0.00 | 0.00 | 0.00 | 85 | 1015.9 |
| 20260902010549 | 77 | 256 | 0.0 | 0.9 | 0.00 | 0.00 | 0.00 | 85 | 1015.8 |
| 20260902010045 | 77 | 256 | 0.0 | 0.0 | 0.00 | 0.00 | 0.00 | 84 | 1015.8 |
| 20260902005542 | 77 | 256 | 0.9 | 0.9 | 0.00 | 0.00 | 0.00 | 84 | 1015.7 |
| 20260902005039 | 77 | 302 | 0.0 | 0.9 | 0.00 | 0.00 | 0.00 | 83 | 1015.4 |
| 20260902004538 | 78 | 246 | 0.0 | 0.0 | 0.00 | 0.00 | 0.00 | 82 | 1015.5 |
| 20260902004033 | 78 | 246 | 0.0 | 2.6 | 0.00 | 0.00 | 0.00 | 81 | 1015.5 |
| 20260902003529 | 78 | 211 | 0.9 | 0.9 | 0.00 | 0.00 | 0.00 | 80 | 1015.5 |
| 20260902003024 | 79 | 140 | 0.0 | 0.0 | 0.00 | 0.00 | 0.00 | 80 | 1015.4 |
| 20260902002520 | 79 | 218 | 1.7 | 0.9 | 0.00 | 0.00 | 0.00 | 79 | 1015.5 |
| 20260902002015 | 79 | 214 | 0.0 | 0.0 | 0.00 | 0.00 | 0.00 | 79 | 1015.5 |
| 20260902001509 | 79 | 214 | 0.0 | 0.0 | 0.00 | 0.00 | 0.00 | 78 | 1015.4 |
| 20260902001004 | 80 | 209 | 0.0 | 0.0 | 0.00 | 0.00 | 0.00 | 77 | 1015.4 |
| 20260902000459 | 80 | 209 | 0.0 | 0.0 | 0.00 | 0.00 | 0.00 | 76 | 1015.5 |
| 20260901235954 | 80 | 210 | 0.9 | 2.6 | 0.00 | 0.00 | 0.00 | 75 | 1015.4 |
| 20260901235448 | 81 | 262 | 0.9 | 0.9 | 0.00 | 0.00 | 0.00 | 75 | 1015.5 |
| 20260901234944 | 81 | 262 | 0.0 | 0.9 | 0.00 | 0.00 | 0.00 | 74 | 1015.6 |
| 20260901234438 | 81 | 315 | 0.9 | 2.6 | 0.00 | 0.00 | 0.00 | 74 | 1015.7 |
| 20260901233933 | 81 | 282 | 1.7 | 3.5 | 0.00 | 0.00 | 0.00 | 74 | 1015.7 |
| 20260901233428 | 81 | 129 | 0.0 | 0.9 | 0.00 | 0.00 | 0.00 | 73 | 1015.8 |
| 20260901232925 | 82 | 273 | 0.0 | 0.9 | 0.00 | 0.00 | 0.00 | 73 | 1015.7 |
| 20260901232425 | 82 | 283 | 1.7 | 2.6 | 0.00 | 0.00 | 0.00 | 72 | 1015.9 |
| 20260901231920 | 82 | 281 | 0.9 | 4.3 | 0.00 | 0.00 | 0.00 | 72 | 1015.8 |
| 20260901231416 | 82 | 275 | 2.6 | 3.5 | 0.00 | 0.00 | 0.00 | 71 | 1015.9 |
| 20260901230912 | 82 | 274 | 3.5 | 6.1 | 0.00 | 0.00 | 0.00 | 72 | 1016.0 |
| 20260901230412 | 82 | 266 | 2.6 | 6.1 | 0.00 | 0.00 | 0.00 | 72 | 1016.1 |
| 20260901225907 | 82 | 249 | 0.0 | 3.5 | 0.00 | 0.00 | 0.00 | 72 | 1016.1 |
| 20260901225406 | 82 | 285 | 2.6 | 7.0 | 0.00 | 0.00 | 0.00 | 71 | 1016.1 |
| 20260901224901 | 83 | 284 | 5.2 | 8.7 | 0.00 | 0.00 | 0.00 | 70 | 1016.0 |
| 20260901224358 | 83 | 231 | 2.6 | 6.1 | 0.00 | 0.00 | 0.00 | 70 | 1016.2 |
| 20260901223854 | 84 | 262 | 1.7 | 3.5 | 0.00 | 0.00 | 0.00 | 69 | 1016.2 |
| 20260901223349 | 85 | 273 | 4.3 | 6.1 | 0.00 | 0.00 | 0.00 | 67 | 1016.2 |
| 20260901222845 | 86 | 128 | 2.6 | 8.7 | 0.00 | 0.00 | 0.00 | 66 | 1016.3 |
| 20260901222341 | 86 | 345 | 5.2 | 9.6 | 0.00 | 0.00 | 0.00 | 64 | 1016.2 |
| 20260901221837 | 86 | 265 | 4.3 | 8.7 | 0.00 | 0.00 | 0.00 | 65 | 1016.1 |
| 20260901221332 | 86 | 217 | 4.3 | 8.7 | 0.00 | 0.00 | 0.00 | 66 | 1016.1 |
| 20260901220832 | 86 | 107 | 1.7 | 3.5 | 0.00 | 0.00 | 0.00 | 67 | 1016.2 |
| 20260901220331 | 86 | 208 | 3.5 | 6.1 | 0.00 | 0.00 | 0.00 | 67 | 1016.1 |
| 20260901215830 | 86 | 352 | 2.6 | 7.0 | 0.00 | 0.00 | 0.00 | 68 | 1016.2 |
| 20260901215329 | 86 | 198 | 0.9 | 7.0 | 0.00 | 0.00 | 0.00 | 68 | 1016.1 |
| 20260901214828 | 85 | 282 | 2.6 | 4.3 | 0.00 | 0.00 | 0.00 | 69 | 1016.1 |
| 20260901214327 | 86 | 238 | 7.0 | 9.6 | 0.00 | 0.00 | 0.00 | 66 | 1016.1 |
| 20260901213822 | 86 | 208 | 3.5 | 10.4 | 0.00 | 0.00 | 0.00 | 67 | 1016.0 |
| 20260901213322 | 87 | 164 | 3.5 | 6.1 | 0.00 | 0.00 | 0.00 | 65 | 1016.0 |
| 20260901212816 | 87 | 218 | 2.6 | 6.1 | 0.00 | 0.00 | 0.00 | 66 | 1016.1 |
| 20260901212312 | 86 | 264 | 3.5 | 10.4 | 0.00 | 0.00 | 0.00 | 67 | 1016.2 |
| 20260901211808 | 86 | 249 | 3.5 | 9.6 | 0.00 | 0.00 | 0.00 | 66 | 1016.2 |
| 20260901211304 | 87 | 242 | 6.1 | 8.7 | 0.00 | 0.00 | 0.00 | 65 | 1016.3 |
| 20260901210759 | 87 | 303 | 1.7 | 2.6 | 0.00 | 0.00 | 0.00 | 67 | 1016.2 |
| 20260901210254 | 87 | 208 | 2.6 | 6.1 | 0.00 | 0.00 | 0.00 | 65 | 1016.1 |
| 20260901205751 | 88 | 19 | 1.7 | 2.6 | 0.00 | 0.00 | 0.00 | 65 | 1016.2 |
| 20260901205250 | 88 | 224 | 5.2 | 7.0 | 0.00 | 0.00 | 0.00 | 64 | 1016.2 |
| 20260901204746 | 87 | 235 | 4.3 | 8.7 | 0.00 | 0.00 | 0.00 | 64 | 1016.1 |
| 20260901204242 | 87 | 188 | 2.6 | 6.1 | 0.00 | 0.00 | 0.00 | 66 | 1016.3 |
| 20260901203737 | 87 | 145 | 2.6 | 3.5 | 0.00 | 0.00 | 0.00 | 67 | 1016.3 |
| 20260901203236 | 86 | 226 | 0.9 | 4.3 | 0.00 | 0.00 | 0.00 | 67 | 1016.2 |
| 20260901202736 | 86 | 284 | 1.7 | 7.0 | 0.00 | 0.00 | 0.00 | 66 | 1016.4 |
| 20260901202232 | 86 | 317 | 2.6 | 7.0 | 0.00 | 0.00 | 0.00 | 66 | 1016.3 |
| 20260901201726 | 85 | 253 | 2.6 | 7.0 | 0.00 | 0.00 | 0.00 | 67 | 1016.4 |
| 20260901201221 | 86 | 202 | 3.5 | 8.7 | 0.00 | 0.00 | 0.00 | 65 | 1016.2 |
| 20260901200720 | 87 | 128 | 4.3 | 7.0 | 0.00 | 0.00 | 0.00 | 62 | 1016.0 |
| 20260901200216 | 88 | 257 | 6.1 | 8.7 | 0.00 | 0.00 | 0.00 | 61 | 1015.9 |
| 20260901195714 | 88 | 251 | 6.1 | 8.7 | 0.00 | 0.00 | 0.00 | 61 | 1016.0 |
| 20260901195208 | 89 | 287 | 2.6 | 7.0 | 0.00 | 0.00 | 0.00 | 59 | 1015.9 |
| 20260901194703 | 88 | 240 | 2.6 | 4.3 | 0.00 | 0.00 | 0.00 | 60 | 1015.7 |
| 20260901194153 | 90 | 215 | 3.5 | 4.3 | 0.00 | 0.00 | 0.00 | 59 | 1015.8 |
| 20260901193648 | 88 | 268 | 0.9 | 6.1 | 0.00 | 0.00 | 0.00 | 61 | 1015.9 |
| 20260901193142 | 88 | 249 | 2.6 | 8.7 | 0.00 | 0.00 | 0.00 | 58 | 1015.7 |
| 20260901192637 | 87 | 226 | 2.6 | 6.1 | 0.00 | 0.00 | 0.00 | 61 | 1015.8 |
| 20260901192133 | 89 | 194 | 4.3 | 7.0 | 0.00 | 0.00 | 0.00 | 58 | 1015.8 |
| 20260901191628 | 88 | 142 | 4.3 | 6.1 | 0.00 | 0.00 | 0.00 | 59 | 1015.9 |
| 20260901191125 | 88 | 218 | 2.6 | 6.1 | 0.00 | 0.00 | 0.00 | 63 | 1016.0 |
| 20260901190620 | 88 | 160 | 2.6 | 4.3 | 0.00 | 0.00 | 0.00 | 61 | 1016.0 |
| 20260901190119 | 88 | 199 | 3.5 | 7.0 | 0.00 | 0.00 | 0.00 | 62 | 1016.0 |
| 20260901185618 | 88 | 261 | 4.3 | 7.0 | 0.00 | 0.00 | 0.00 | 62 | 1016.2 |
| 20260901185116 | 87 | 220 | 2.6 | 4.3 | 0.00 | 0.00 | 0.00 | 64 | 1016.0 |
| 20260901184612 | 87 | 245 | 3.5 | 9.6 | 0.00 | 0.00 | 0.00 | 63 | 1016.1 |
| 20260901184107 | 87 | 223 | 5.2 | 7.0 | 0.00 | 0.00 | 0.00 | 64 | 1016.0 |
| 20260901183602 | 86 | 164 | 1.7 | 6.1 | 0.00 | 0.00 | 0.00 | 66 | 1016.1 |
| 20260901183057 | 86 | 68 | 0.9 | 12.2 | 0.00 | 0.00 | 0.00 | 68 | 1016.2 |
| 20260901182554 | 86 | 238 | 4.3 | 9.6 | 0.00 | 0.00 | 0.00 | 68 | 1016.4 |
| 20260901182054 | 86 | 255 | 3.5 | 6.1 | 0.00 | 0.00 | 0.00 | 67 | 1016.1 |
| 20260901181553 | 87 | 145 | 4.3 | 7.0 | 0.00 | 0.00 | 0.00 | 65 | 1015.9 |
| 20260901181052 | 87 | 256 | 6.1 | 8.7 | 0.00 | 0.00 | 0.00 | 63 | 1016.2 |
| 20260901180551 | 87 | 131 | 3.5 | 7.0 | 0.00 | 0.00 | 0.00 | 64 | 1016.2 |
| 20260901180046 | 87 | 286 | 3.5 | 7.0 | 0.00 | 0.00 | 0.00 | 65 | 1016.3 |
| 20260901175540 | 88 | 222 | 1.7 | 12.2 | 0.00 | 0.00 | 0.00 | 63 | 1016.0 |
| 20260901175034 | 87 | 313 | 3.5 | 3.5 | 0.00 | 0.00 | 0.00 | 65 | 1016.1 |
| 20260901174530 | 87 | 189 | 3.5 | 4.3 | 0.00 | 0.00 | 0.00 | 66 | 1016.1 |
| 20260901174027 | 87 | 216 | 1.7 | 4.3 | 0.00 | 0.00 | 0.00 | 65 | 1016.1 |
| 20260901173526 | 87 | 221 | 7.0 | 10.4 | 0.00 | 0.00 | 0.00 | 64 | 1016.6 |
| 20260901173022 | 87 | 274 | 6.1 | 9.6 | 0.00 | 0.00 | 0.00 | 64 | 1016.5 |
| 20260901172518 | 88 | 0 | 9.6 | 13.9 | 0.00 | 0.00 | 0.00 | 62 | 1016.6 |
| 20260901172015 | 88 | 157 | 5.2 | 8.7 | 0.00 | 0.00 | 0.00 | 63 | 1016.4 |
| 20260901171515 | 88 | 183 | 3.5 | 12.2 | 0.00 | 0.00 | 0.00 | 61 | 1016.3 |
| 20260901171014 | 88 | 246 | 3.5 | 7.0 | 0.00 | 0.00 | 0.00 | 63 | 1016.5 |
| 20260901170508 | 88 | 219 | 6.1 | 9.6 | 0.00 | 0.00 | 0.00 | 60 | 1016.6 |
| 20260901170003 | 88 | 258 | 7.0 | 8.7 | 0.00 | 0.00 | 0.00 | 60 | 1016.7 |
| 20260901165457 | 89 | 237 | 3.5 | 7.0 | 0.00 | 0.00 | 0.00 | 58 | 1016.6 |
| 20260901164953 | 89 | 241 | 3.5 | 7.0 | 0.00 | 0.00 | 0.00 | 62 | 1016.5 |
| 20260901164448 | 89 | 240 | 4.3 | 4.3 | 0.00 | 0.00 | 0.00 | 61 | 1016.6 |
| 20260901163943 | 89 | 4 | 1.7 | 8.7 | 0.00 | 0.00 | 0.00 | 60 | 1016.7 |
| 20260901163438 | 88 | 103 | 4.3 | 6.1 | 0.00 | 0.00 | 0.00 | 62 | 1016.5 |
| 20260901162937 | 88 | 266 | 6.1 | 9.6 | 0.00 | 0.00 | 0.00 | 60 | 1016.7 |
| 20260901162432 | 88 | 230 | 1.7 | 8.7 | 0.00 | 0.00 | 0.00 | 62 | 1016.7 |
| 20260901161932 | 88 | 330 | 2.6 | 9.6 | 0.00 | 0.00 | 0.00 | 60 | 1016.6 |
| 20260901161431 | 87 | 237 | 2.6 | 7.0 | 0.00 | 0.00 | 0.00 | 63 | 1016.6 |
| 20260901160926 | 87 | 225 | 6.1 | 12.2 | 0.00 | 0.00 | 0.00 | 63 | 1016.7 |
| 20260901160422 | 88 | 227 | 4.3 | 7.0 | 0.00 | 0.00 | 0.00 | 62 | 1016.6 |
| 20260901155921 | 88 | 86 | 0.9 | 4.3 | 0.00 | 0.00 | 0.00 | 62 | 1016.9 |
| 20260901155416 | 88 | 248 | 2.6 | 4.3 | 0.00 | 0.00 | 0.00 | 61 | 1016.5 |
| 20260901154913 | 87 | 21 | 1.7 | 2.6 | 0.00 | 0.00 | 0.00 | 63 | 1016.5 |
| 20260901154412 | 87 | 301 | 3.5 | 3.5 | 0.00 | 0.00 | 0.00 | 65 | 1016.5 |
| 20260901153906 | 86 | 78 | 3.5 | 4.3 | 0.00 | 0.00 | 0.00 | 64 | 1016.5 |
| 20260901153406 | 86 | 277 | 8.7 | 10.4 | 0.00 | 0.00 | 0.00 | 64 | 1016.6 |
| 20260901152900 | 87 | 245 | 4.3 | 10.4 | 0.00 | 0.00 | 0.00 | 63 | 1016.5 |
| 20260901152355 | 86 | 50 | 0.9 | 3.5 | 0.00 | 0.00 | 0.00 | 65 | 1016.6 |
| 20260901151849 | 85 | 307 | 1.7 | 7.0 | 0.00 | 0.00 | 0.00 | 66 | 1016.6 |
| 20260901151344 | 86 | 239 | 2.6 | 6.1 | 0.00 | 0.00 | 0.00 | 65 | 1016.7 |
| 20260901150843 | 85 | 314 | 5.2 | 7.0 | 0.00 | 0.00 | 0.00 | 64 | 1016.9 |
| 20260901150341 | 85 | 98 | 2.6 | 7.0 | 0.00 | 0.00 | 0.00 | 65 | 1016.6 |
| 20260901145838 | 85 | 341 | 2.6 | 7.0 | 0.00 | 0.00 | 0.00 | 65 | 1016.6 |
| 20260901145333 | 85 | 16 | 1.7 | 4.3 | 0.00 | 0.00 | 0.00 | 67 | 1016.6 |
| 20260901144828 | 84 | 234 | 4.3 | 8.7 | 0.00 | 0.00 | 0.00 | 66 | 1016.6 |
| 20260901144324 | 85 | 332 | 0.9 | 8.7 | 0.00 | 0.00 | 0.00 | 66 | 1016.7 |
| 20260901143820 | 84 | 107 | 1.7 | 8.7 | 0.00 | 0.00 | 0.00 | 67 | 1016.5 |
| 20260901143316 | 84 | 204 | 2.6 | 10.4 | 0.00 | 0.00 | 0.00 | 68 | 1016.4 |
| 20260901142812 | 84 | 234 | 4.3 | 6.1 | 0.00 | 0.00 | 0.00 | 67 | 1016.6 |
| 20260901142310 | 83 | 352 | 2.6 | 6.1 | 0.00 | 0.00 | 0.00 | 68 | 1016.4 |
| 20260901141806 | 83 | 27 | 0.9 | 13.9 | 0.00 | 0.00 | 0.00 | 70 | 1016.5 |
| 20260901141301 | 82 | 236 | 2.6 | 7.0 | 0.00 | 0.00 | 0.00 | 71 | 1016.4 |
| 20260901140800 | 82 | 242 | 3.5 | 8.7 | 0.00 | 0.00 | 0.00 | 70 | 1016.4 |
| 20260901140258 | 82 | 256 | 3.5 | 6.1 | 0.00 | 0.00 | 0.00 | 70 | 1016.2 |
| 20260901135754 | 82 | 211 | 2.6 | 4.3 | 0.00 | 0.00 | 0.00 | 71 | 1016.1 |
| 20260901135253 | 82 | 354 | 2.6 | 10.4 | 0.00 | 0.00 | 0.00 | 71 | 1016.4 |
| 20260901134750 | 81 | 201 | 2.6 | 2.6 | 0.00 | 0.00 | 0.00 | 72 | 1016.4 |
| 20260901134249 | 81 | 275 | 3.5 | 8.7 | 0.00 | 0.00 | 0.00 | 73 | 1016.5 |
| 20260901133748 | 81 | 276 | 6.1 | 8.7 | 0.00 | 0.00 | 0.00 | 72 | 1016.5 |
| 20260901133243 | 82 | 248 | 2.6 | 6.1 | 0.00 | 0.00 | 0.00 | 72 | 1016.5 |
| 20260901132741 | 81 | 43 | 2.6 | 4.3 | 0.00 | 0.00 | 0.00 | 72 | 1016.4 |
| 20260901132236 | 81 | 316 | 1.7 | 2.6 | 0.00 | 0.00 | 0.00 | 74 | |
| 20260901131731 | 80 | 252 | 2.6 | 2.6 | 0.00 | 0.00 | 0.00 | 76 | |
| 20260901131230 | 79 | 245 | 2.6 | 4.3 | 0.00 | 0.00 | 0.00 | 78 | |
| 20260901130726 | 78 | 247 | 1.7 | 2.6 | 0.00 | 0.00 | 0.00 | 80 | |
| 20260901130225 | 78 | 227 | 3.5 | 4.3 | 0.00 | 0.00 | 0.00 | 80 | |
| 20260901125723 | 77 | 262 | 0.9 | 3.5 | 0.00 | 0.00 | 0.00 | 81 | |
| 20260901125218 | 77 | 240 | 2.6 | 6.1 | 0.00 | 0.00 | 0.00 | 83 | |
| 20260901124712 | 76 | 298 | 1.7 | 2.6 | 0.00 | 0.00 | 0.00 | 84 | |
| 20260901124207 | 76 | 247 | 0.0 | 2.6 | 0.00 | 0.00 | 0.00 | 84 | |
| 20260901123707 | 76 | 297 | 1.7 | 3.5 | 0.00 | 0.00 | 0.00 | 84 | |
| 20260901123202 | 76 | 236 | 0.9 | 0.9 | 0.00 | 0.00 | 0.00 | 85 | |
| 20260901122700 | 76 | 208 | 0.9 | 2.6 | 0.00 | 0.00 | 0.00 | 85 | |
| 20260901122155 | 75 | 146 | 0.9 | 2.6 | 0.00 | 0.00 | 0.00 | 85 | |
| 20260901121649 | 75 | 191 | 0.9 | 0.9 | 0.00 | 0.00 | 0.00 | 86 | |
| 20260901121145 | 75 | 295 | 0.9 | 2.6 | 0.00 | 0.00 | 0.00 | 86 | |
| 20260901120644 | 75 | 251 | 0.9 | 2.6 | 0.00 | 0.00 | 0.00 | 86 | |
| 20260901120140 | 75 | 249 | 0.0 | 2.6 | 0.00 | 0.00 | 0.00 | 86 |